Location: Johnson City
(36.3130°N, 82.3540°W)
Time: 08:57:55
(UTC-05:00)

Envisat - Visible Passes

Search period start: 20 February 2018 00:00
Search period end: 02 March 2018 00:00
Orbit: 764 x 766 km, 98.2° (Epoch: 19 February)

Date Brightness Start Highest point End Pass type
(mag) Time Alt. Az. Time Alt. Az. Time Alt. Az.
20 Feb 3.3 19:30:28 10° SE 19:35:14 42° ENE 19:40:00 10° N visible
20 Feb 5.4 21:10:50 10° SW 21:14:23 19° W 21:17:57 10° NW visible
21 Feb 4.3 18:55:17 10° ESE 18:58:48 19° ENE 19:02:20 10° NNE visible
21 Feb 4.0 20:32:38 10° S 20:37:27 44° W 20:42:19 10° NNW visible
22 Feb 2.8 19:55:40 10° SSE 20:00:43 78° ENE 20:05:48 10° N visible
23 Feb 3.6 19:19:39 10° SE 19:24:09 33° ENE 19:28:41 10° N visible
23 Feb 5.0 20:59:05 10° SSW 21:03:10 24° W 21:07:17 10° NW visible
24 Feb 4.5 18:44:57 10° E 18:47:48 15° ENE 18:50:40 10° NNE visible
24 Feb 3.5 20:21:19 10° S 20:26:18 58° W 20:31:18 10° NNW visible
25 Feb 2.9 19:44:38 10° SSE 19:49:36 61° ENE 19:54:37 10° N visible
25 Feb 5.8 21:26:38 10° WSW 21:28:58 13° W 21:31:20 10° WNW visible
26 Feb 3.9 19:08:56 10° SE 19:13:07 27° ENE 19:17:18 10° NNE visible
26 Feb 4.6 20:47:30 10° SSW 20:51:58 31° W 20:56:28 10° NW visible
27 Feb 3.1 20:10:06 10° S 20:15:09 75° WSW 20:20:14 10° NNW visible
28 Feb 3.2 19:33:41 10° SE 19:38:31 47° ENE 19:43:22 10° N visible
28 Feb 5.5 21:14:27 10° SW 21:17:44 17° W 21:21:02 10° NW visible
01 Mar 4.2 18:58:20 10° ESE 19:02:04 21° ENE 19:05:49 10° NNE visible
01 Mar 4.2 20:36:03 10° SSW 20:40:47 40° W 20:45:33 10° NNW visible
